STARLINK-34985 (65379 NORAD) Tracking and Keplerian Element Data

This shows tracking and keplerian element data for the satellite.

Feedback or suggestion? Click here.




ElementValue
Catalog65379
NameSTARLINK-34985
Epoch Orbit1826
Epoch Day353.92302169
Epoch Year2025
RAAN222.8526
Inclination97.6029
Eccentricity0.0002375
Argument of Perigee80.2019
Mean Anonmoly279.9476
Mean Motion15.05651734
Decay Rate3.273E-05
L11 65379U 25191A 25353.92302169 .00003273 00000+0 23093-3 0 9992
L22 65379 97.6029 222.8526 0002375 80.2019 279.9476 15.05651734 18267



Live tracking and technical data element details for STARLINK-34985 (NORAD 65379). STARLINK-34985 can be tracked NOW for your location showing map with azimuth and elevation plus other details from your city location.







IsCatalogInMostPopularTable: catalog: 65379, numindb: 13
Update: records affected: 1



GetName: 65379 STARLINK-34985

Hit Count: updated at: Mon, 20 Apr 2026 10:02:47 GMT